Regional Weather Roundup
Issued by NWS

Home | Current Version | Previous Version | Graphics & Text | Print | Product List | Glossary On
Versions: 1 2 3 4 5 6 7 8 9 10 11 12 13 14 15 16 17 18 19 20 21 22 23 24 25 26 27 28 29 30 31 32 33 34 35 36 37 38 39 40 41 42 43 44 45 46 47 48 49 50
411
ASUS44 KLIX 220501
RWRLA
LOUISIANA WEATHER ROUNDUP
NATIONAL WEATHER SERVICE NEW ORLEANS LA
1200 AM CDT FRI AUG 22 2014

NOTE: "FAIR" INDICATES FEW OR NO CLOUDS BELOW 12,000 FEET WITH NO
      SIGNIFICANT WEATHER AND/OR OBSTRUCTIONS TO VISIBILITY.
      SKY/WX - SKY CONDITION AND SIGNIFICANT WEATHER.
      TMP - AIR TEMPERATURE.    DP   - DEWPOINT TEMPERATURE.
      RH  - RELATIVE HUMIDITY.  PRES - PRESSURE.
      HX  - HEAT INDEX.         WCI  - WIND CHILL INDEX.

*  THESE STATIONS ARE NOT NWS OR FAA STATIONS AND ARE NOT UNDER
   NWS QUALITY CONTROL.

LAZ040-048-061>063-065-066-069-220600-
SOUTHEAST LOUISIANA

CITY           SKY/WX    TMP DP  RH WIND       PRES   REMARKS
N.O. AUDUBON     N/A     79  76  91 MISG        N/A
N.O. INTL ARPT MOCLDY    78  74  87 S3        30.11F
N.O. LAKEFRONT CLOUDY    81  74  79 SW7       30.11F
N.O. DOWNTOWN* FAIR      81  72  74 CALM      30.11F
SLIDELL        CLOUDY    78  74  87 CALM      30.10F
BATON ROUGE    PTCLDY    76  74  93 CALM      30.11S
BOOTHVILLE     PTCLDY    82  79  90 NW3       30.11F
BELLE CHASSE   CLOUDY    76  72  87 CALM      30.10F
BOGALUSA*      FAIR      78  73  82 CALM      30.11F
GALLIANO*      NOT AVBL
NEW ROADS*     FAIR      75  73  96 CALM      30.11S
GONZALES*      FAIR      76  75  99 CALM      30.10F
HAMMOND*       NOT AVBL
HOUMA*         MOCLDY    75  72  90 CALM      30.11F
PORT FOURCHON* CLEAR     84  77  79 CALM      30.13F

$$

LAZ041-044-053-054-220600-
SOUTHWEST LOUISIANA

CITY           SKY/WX    TMP DP  RH WIND       PRES   REMARKS
LAKE CHARLES   PTCLDY    79  76  90 S3        30.07F
LAFAYETTE      MOCLDY    77  75  93 CALM      30.11R
PATTERSON      CLEAR     75  73  94 S3        30.14
SALT POINT       N/A     81  77  88 SE3       30.10F
NEW IBERIA     PTCLDY    76  74  93 CALM      30.11S
CHENAULT AIRPK PTCLDY    80  75  86 S5        30.08F

$$

LAZ027-028-220600-
CENTRAL LOUISIANA

CITY           SKY/WX    TMP DP  RH WIND       PRES   REMARKS
FORT POLK      CLEAR     75  73  93 SE3       30.09S
ALEXANDRIA INT CLEAR     74  73  97 SE7       30.08R
ALEXANDRIA     PTCLDY    75  72  90 CALM      30.10R

$$

LAZ001-002-220600-
NORTHWEST LOUISIANA

CITY           SKY/WX    TMP DP  RH WIND       PRES   REMARKS
SHREVEPORT     MOCLDY    79  75  87 SE6       30.04F
BARKSDALE AFB  PTCLDY    76  74  92 SE8       30.05F
DTN SHREVEPORT PTCLDY    79  74  84 SE6       30.05S

$$

LAZ014-016-220600-
NORTHEAST LOUISIANA

CITY           SKY/WX    TMP DP  RH WIND       PRES   REMARKS
MONROE         MOCLDY    74  71  91 S3        30.08F
TALLULAH       MOCLDY    74  72  93 SE5       30.09S

$$




USA.gov is the U.S. government's official web portal to all federal, state and local government web resources and services.